Regional Weather Roundup
Issued by NWS Midland/Odessa, TX

Skip options and go directly to product.
Home | Oldest Version | Next Version | Current Version | All | Text Only | Save Text | Print | Product List | Glossary On

Skip product version selection by date and time.   
083
ASUS44 KMAF 291702
RWRMAF
MIDLAND AREA WEATHER ROUNDUP
NATIONAL WEATHER SERVICE MIDLAND TX
1200 PM CDT WED OCT 29 2014

...IN SOUTHWEST TEXAS AND SOUTHEAST NEW MEXICO...

CITY           SKY/WX    TMP DP  RH WIND       PRES   REMARKS
ALPINE         SUNNY     65  46  49 CALM      30.33F
ANDREWS        FAIR      65  44  45 SE9       30.28S
ARTESIA        NOT AVBL
BIG SPRING     SUNNY     68  42  38 E10       30.28F
CARLSBAD       SUNNY     63  45  51 SE8       30.25F
DRYDEN           N/A     72  56  57 NE7       30.20S
FORT STOCKTON  CLOUDY    64  47  53 E5        30.25F
GUAD PASS      NOT AVBL
HOBBS          SUNNY     63  41  45 SE13      30.28F
MARFA          SUNNY     66  52  59 SE6       30.30F
MIDLAND AIRPK  SUNNY     68  44  41 E8        30.27S
MIDLAND INTL   SUNNY     67  45  45 E10       30.26F
ODESSA         MOSUNNY   66  44  45 SE12      30.27S
PECOS          SUNNY     64  46  53 SE5       30.25F
PRESIDIO       FAIR      75  51  42 E5        30.19F
SEMINOLE       SUNNY     64  41  42 SE12      30.29S
SNYDER         SUNNY     64  40  41 E6        30.27F
WINK           SUNNY     67  44  43 E12       30.24F
$$
...OTHER STATIONS IN TEXAS...

CITY           SKY/WX    TMP DP  RH WIND       PRES   REMARKS
ABILENE        SUNNY     69  44  40 N3        30.26F
AMARILLO       SUNNY     60  37  42 S16       30.27F
AUSTIN         CLOUDY    74  63  68 NE9       30.17S
BROWNSVILLE    MOSUNNY   83  69  62 VRB5      30.10S
CORPUS CHRISTI PTSUNNY   85  69  58 NE7       30.11F
DALLAS FTW     SUNNY     71  49  45 E10       30.23S
DEL RIO        CLOUDY    74  65  73 SW5       30.15S
EL PASO        MOSUNNY   67  41  38 N5        30.23S
HOUSTON INT    PTSUNNY   81  67  62 W7        30.12S
LUBBOCK        SUNNY     63  36  36 SE14      30.28S
SAN ANGELO     SUNNY     70  52  52 E8        30.24S
SAN ANTONIO    MOSUNNY   79  64  60 VRB3      30.16F
WACO           SUNNY     72  57  59 NE10      30.20F
WICHITA FALLS  NOT AVBL
$$
...OTHER LOCATIONS IN NEW MEXICO...

CITY           SKY/WX    TMP DP  RH WIND       PRES   REMARKS
ALAMAGORDO     NOT AVBL
ALBUQUERQUE    SUNNY     57  17  21 N8        30.31F
CANNON AFB     SUNNY     61  39  43 SW15      30.27F
CLOVIS         SUNNY     61  37  41 S13       30.30S
HOLLOMAN AFB   SUNNY     65  39  38 CALM      30.24S
ROSWELL        SUNNY     60  43  53 S10       30.27F
RUIDOSO        SUNNY     63  32  31 NE6       30.36S
SANTA FE       SUNNY     54  11  18 N16       30.33R
TRUTH OR CONSE SUNNY     63  38  39 E5        30.27S
TUCUMCARI      SUNNY     58  39  49 W5        30.24F
$$

USA.gov is the U.S. government's official web portal to all federal, state and local government web resources and services.